TimeEDT,TemperatureF,Dew PointF,Humidity,Sea Level PressureIn,VisibilityMPH,Wind Direction,Wind SpeedMPH,Gust SpeedMPH,PrecipitationIn,Events,Conditions,WindDirDegrees,DateUTC
12:54 AM,70.0,66.9,90,30.27,9.0,Calm,Calm,-,N/A,,Clear,0,2013-07-14 04:54:00
1:34 AM,69.8,66.2,88,30.28,9.0,Calm,Calm,-,N/A,,Mostly Cloudy,0,2013-07-14 05:34:00
1:54 AM,69.1,66.9,93,30.27,8.0,Calm,Calm,-,N/A,,Scattered Clouds,0,2013-07-14 05:54:00
2:54 AM,69.1,66.0,90,30.26,8.0,Calm,Calm,-,N/A,,Partly Cloudy,0,2013-07-14 06:54:00
3:32 AM,68.0,66.2,94,30.27,7.0,Calm,Calm,-,N/A,,Mostly Cloudy,0,2013-07-14 07:32:00
3:54 AM,69.1,66.9,93,30.27,8.0,Calm,Calm,-,N/A,,Overcast,0,2013-07-14 07:54:00
4:54 AM,70.0,66.9,90,30.27,10.0,Calm,Calm,-,N/A,,Overcast,0,2013-07-14 08:54:00
5:06 AM,69.8,66.2,88,30.28,10.0,North,3.5,-,N/A,,Overcast,360,2013-07-14 09:06:00
5:14 AM,69.8,66.2,88,30.29,10.0,Calm,Calm,-,N/A,,Overcast,0,2013-07-14 09:14:00
5:25 AM,69.8,66.2,88,30.29,10.0,Calm,Calm,-,N/A,,Overcast,0,2013-07-14 09:25:00
5:46 AM,69.8,66.2,88,30.29,7.0,Calm,Calm,-,N/A,,Overcast,0,2013-07-14 09:46:00
5:54 AM,70.0,66.9,90,30.29,6.0,Calm,Calm,-,N/A,,Overcast,0,2013-07-14 09:54:00
6:54 AM,71.1,68.0,90,30.30,9.0,Calm,Calm,-,N/A,,Mostly Cloudy,0,2013-07-14 10:54:00
7:54 AM,72.0,69.1,91,30.32,10.0,Calm,Calm,-,N/A,,Overcast,0,2013-07-14 11:54:00
8:54 AM,75.0,70.0,84,30.32,10.0,Calm,Calm,-,0.00,,Overcast,0,2013-07-14 12:54:00
9:54 AM,79.0,71.1,77,30.32,10.0,East,3.5,-,N/A,,Overcast,100,2013-07-14 13:54:00
10:54 AM,81.0,71.1,72,30.32,10.0,ENE,4.6,-,N/A,,Overcast,60,2013-07-14 14:54:00
11:42 AM,84.2,71.6,66,30.32,10.0,NE,4.6,-,N/A,,Overcast,40,2013-07-14 15:42:00
11:54 AM,82.9,70.0,65,30.31,10.0,Variable,3.5,-,N/A,,Overcast,0,2013-07-14 15:54:00
12:54 PM,86.0,71.1,61,30.30,10.0,Variable,5.8,-,N/A,,Scattered Clouds,0,2013-07-14 16:54:00
1:54 PM,87.1,69.1,55,30.29,10.0,Calm,Calm,-,N/A,,Scattered Clouds,0,2013-07-14 17:54:00
2:54 PM,88.0,70.0,55,30.28,10.0,South,6.9,-,N/A,,Mostly Cloudy,180,2013-07-14 18:54:00
3:54 PM,89.1,68.0,50,30.26,10.0,Variable,5.8,-,N/A,,Scattered Clouds,0,2013-07-14 19:54:00
4:54 PM,88.0,66.9,49,30.25,10.0,South,6.9,-,N/A,,Scattered Clouds,170,2013-07-14 20:54:00
5:54 PM,88.0,69.1,53,30.24,10.0,South,4.6,-,N/A,,Partly Cloudy,180,2013-07-14 21:54:00
6:54 PM,86.0,69.1,57,30.24,10.0,South,5.8,-,N/A,,Scattered Clouds,170,2013-07-14 22:54:00
7:54 PM,84.0,68.0,58,30.24,10.0,South,6.9,-,N/A,,Clear,180,2013-07-14 23:54:00
8:54 PM,80.1,68.0,67,30.25,10.0,Calm,Calm,-,N/A,,Clear,0,2013-07-15 00:54:00
9:54 PM,78.1,70.0,76,30.26,10.0,North,4.6,-,N/A,,Clear,10,2013-07-15 01:54:00
10:54 PM,75.0,70.0,84,30.26,10.0,Calm,Calm,-,N/A,,Clear,0,2013-07-15 02:54:00
11:54 PM,73.0,69.1,87,30.27,10.0,North,3.5,-,N/A,,Clear,10,2013-07-15 03:54:00